Location: Black Swamp Observatory
(41.3920°N, 84.1250°W)
Time: 04:11:16
(UTC-04:00)

Courier 1B Rocket - Pass Details

Date: 23 January 2022
Orbit: 920 x 1202 km, 28.2° (Epoch: 28 May)

Event Time Altitude Azimuth Distance (km) Brightness Sun altitude
Exits shadow 03:56:05 12° 125° (SE) 2,601 7.5 -44.7°
Drops below altitude 10° 03:56:33 10° 122° (ESE) 2,723 7.7 -44.6°
Sets 03:59:34 0° 110° (ESE) 3,632 8.6 -44.0°
